Tracking 21473 objects as of 27-Sep-2020
HD Live streaming from Space Station
objects crossing your sky now

STARLINK-1421

Track STARLINK-1421 now!
10-day predictions
STARLINK-1421 is classified as:


NORAD ID: 45709
Int'l Code: 2020-035BE
Perigee: 518.2 km
Apogee: 520.0 km
Inclination: 53.0 °
Period: 94.9 minutes
Semi major axis: 6890 km
RCS: Unknown
Launch date: June 4, 2020
Source: United States (US)
Launch site: AIR FORCE EASTERN TEST RANGE (AFETR)
aabbcc
Your satellite tracking list
Your tracking list is empty




NASA's NSSDC Master Catalog

Two Line Element Set (TLE):
1 45709U 20035BE  20271.58337963 -.00938352 +00000-0 -49323-1 0  9995
2 45709 052.9985 326.3284 0001309 081.7506 260.9840 15.17980387001765
Source of the keplerian elements: AFSPC